Flag for Uruguay Weather past 2 weeks in Minas, Uruguay

Now
70 °F

Sleet. Fog.


Feels Like: 70 °F
Forecast: 68 / 85 °F
Wind: 3 mph from Northeast

Location: Capitan Corbeta

Current Time: Dec 27, 2014 at 10:23:01 AM

Latest Report: Dec 27, 2014 at 9:00 AM


Visibility: 3 mi

Pressure: 29.83 "Hg

Humidity: 88%

Dew point: 66 °F

Location of MinasLocation

Historic Weather in Minas — Graph

°F

Minas temperature yesterday

Maximum temperature yesterday: 86 °F (at 1:00 PM)
Minimum temperature yesterday: 66 °F (at 3:00 PM)
Average temperature yesterday: 72 °F

Past Weeks' High & Low Weather Summary

 TemperatureHumidityPressure
High91 °F (Dec 19, 3:00 PM)94% (Dec 13, 5:00 AM)30.21 "Hg (Dec 13, 5:00 AM)
Low50 °F (Dec 23, 6:00 AM)23% (Dec 19, 4:00 PM)29.53 "Hg (Dec 20, 4:00 PM)
Average69 °F66%29.90 "Hg
* Reported Dec 12 9:00 AM — Dec 27 9:00 AM, Minas, Weather by CustomWeather, © 2014

Note: Actual official high and low records may vary slightly from our data, if they occured in-between our weather recording intervals... More about our weather records

Advertising

Minas weather history for previous 24 hours

 ConditionsComfort  
Time TempWeatherWind HumidityBarometerVisibility
9:00 AM
Dec 27
70 °FSleet. Fog.3 mph88%29.83 "Hg3 mi
8:00 AM68 °FFog.5 mph94%29.83 "Hg6 mi
7:00 AM66 °FSleet. Fog.3 mph94%29.83 "HgN/A
6:00 AM66 °FClear.3 mph88%29.80 "Hg10 mi
4:00 AM66 °FClear.6 mph88%29.80 "Hg10 mi
3:00 AM66 °FClear.8 mph88%29.80 "Hg10 mi
2:00 AM66 °FClear.8 mph88%29.83 "Hg10 mi
1:00 AM68 °FClear.5 mph83%29.89 "Hg10 mi
12:00 AM66 °FClear.3 mph88%29.89 "Hg10 mi
11:00 PM
Dec 26
66 °FClear.5 mph88%29.89 "Hg10 mi
10:00 PM66 °FMild.No wind88%29.89 "HgN/A
9:00 PM66 °FPartly cloudy.6 mph88%29.86 "HgN/A
8:00 PM66 °FMore clouds than sun.5 mph88%29.86 "HgN/A
7:00 PM66 °FRain. Overcast.6 mph88%29.95 "Hg5 mi
6:00 PM66 °FSleet. More clouds than sun.13 mph83%29.92 "Hg5 mi
5:00 PM66 °FThunderstorms. More clouds than sun.12 mph83%29.95 "Hg3 mi
4:00 PM66 °FStrong thunderstorms. Partly sunny.18 mph78%29.92 "Hg1 mi
3:00 PM66 °FThunderstorms. Partly sunny.12 mph78%29.92 "Hg2 mi
2:00 PM72 °FStrong thunderstorms. Broken clouds.23 mph88%29.89 "Hg1 mi
1:00 PM86 °FLight rain. Passing clouds.6 mph55%29.92 "HgN/A
11:00 AM84 °FScattered clouds.7 mph62%29.95 "HgN/A
10:00 AM79 °FPassing clouds.7 mph65%29.95 "HgN/A
Weather by CustomWeather, © 2014

See weather overviewHow to use our weather pages